Skip Page Navigation
NASA JPL Caltech
NASA Logo - Jet Propulsion Laboratory + View the NASA Portal
+ Center for Near-Earth Object Studies
JPL Home Earth Solar System Stars & Galaxies Technology
JPL Solar System Dynamics
BODIES ORBITS EPHEMERIDES TOOLS PHYSICAL DATA DISCOVERY FAQ SITE MAP
JPL Small-Body Database Browser
Search: [ help ]  
447565 (2006 TJ19)
Classification: Main-belt Asteroid          SPK-ID: 2447565
Ephemeris | Orbit Diagram | Orbital Elements | Mission Design | Physical Parameters | Discovery Circumstances ]

[ show orbit diagram ]
Orbital Elements at Epoch 2459000.5 (2020-May-31.0) TDB
Reference: JPL 14 (heliocentric ecliptic J2000)
 Element Value Uncertainty (1-sigma)   Units 
e .09980965981047422 1.6307e-07  
a 2.778213046405808 4.7051e-08 au
q 2.500920547363023 4.7289e-07 au
i 4.459416656473723 1.476e-05 deg
node 224.45001554 0.000123 deg
peri 139.5784969048818 0.00013244 deg
M 3.982506278642247 4.3532e-05 deg
tp 2458981.788839895260
(2020-May-12.28883990)
0.00020448 TDB
period 1691.401636660565
4.63
4.2968e-05
1.176e-07
d
yr
n .2128412271793525 5.4069e-09 deg/d
Q 3.055505545448593 5.1747e-08 au
  Orbit Determination Parameters
   # obs. used (total)      84  
   data-arc span      4214 days (11.54 yr)  
   first obs. used      2006-09-28  
   last obs. used      2018-04-12  
   planetary ephem.      DE431  
   SB-pert. ephem.      SB431-N16  
   condition code      0  
   norm. resid. RMS      .71218  
   source      ORB  
   producer      Otto Matic  
   solution date      2019-Jul-14 11:53:53  

Additional Information
 Earth MOID = 1.50103 au 
 Jupiter MOID = 2.41094 au 
 T_jup = 3.323 
[ show covariance matrix ]

Ephemeris | Orbit Diagram | Orbital Elements | Mission Design | Physical Parameters | Discovery Circumstances ]

Physical Parameter Table
Parameter Symbol Value Units Sigma Reference Notes
absolute magnitude H 17.0   n/a MPO446776  

447565 (2006 TJ19)          Discovered 2006-Sep-28 by Mt. Lemmon Survey at Mount Lemmon
Reference: Last Updated: 2015-10-28
Ephemeris | Orbit Diagram | Orbital Elements | Mission Design | Physical Parameters | Discovery Circumstances ]
ABOUT SSD CREDITS/AWARDS PRIVACY/COPYRIGHT GLOSSARY LINKS
FirstGov 2020-Aug-08 07:47 UT
(server date/time)  
NASA Home Page
Site Manager:   Ryan S. Park
Webmaster  Alan B. Chamberlin